Wind_Speed
15 13 11 9 8 7 5 3 2 3 4 5 6 7 8 8 9 10 10 10 11 11 12 12 12 11 10 9 9 8 8 7 6 6 6 6 5 4 3 2 2 2 2 3
17 16 14 12 11 9 7 5 4 4 5 4 4 5 6 7 7 8 9 9 9 9 10 10 11 11 10 9 9 8 8 7 6 6 6 6 6 5 4 3 3 3 3 4
20 17 16 14 12 10 9 7 7 6 6 5 4 4 4 6 7 7 8 8 7 8 9 9 10 10 10 9 9 8 8 7 7 7 6 6 6 6 5 4 5 5 5 4
23 21 19 17 15 13 11 10 8 7 6 6 3 2 5 5 6 6 7 7 6 7 8 8 9 9 8 8 8 8 7 7 6 6 6 6 6 6 6 6 6 6 6 5
24 23 21 19 17 15 14 12 11 9 8 6 6 4 5 5 5 6 6 6 6 6 7 8 8 9 8 8 8 8 7 7 6 6 6 7 7 7 7 7 8 8 7 7
25 25 24 22 20 18 16 14 13 11 9 8 8 6 5 7 6 5 5 5 5 6 7 8 8 8 8 8 8 8 8 7 7 6 7 7 7 8 8 8 8 9 9 9
27 26 25 23 22 20 18 15 12 10 10 10 10 8 7 8 7 6 6 6 5 6 7 7 8 9 9 8 8 8 7 7 7 7 7 8 8 8 8 9 9 10 10 10
26 26 26 25 23 22 20 16 14 11 10 10 12 10 9 9 8 7 7 7 6 6 7 8 8 9 9 9 8 8 7 7 7 8 8 8 9 9 9 9 10 11 11 11
25 25 25 25 24 23 21 19 16 14 12 11 12 11 10 9 9 8 9 8 8 8 8 9 9 9 10 10 9 9 8 8 8 8 9 9 9 10 10 10 11 12 12 12
26 26 25 24 24 24 23 21 18 16 15 13 14 13 12 10 10 10 10 9 9 9 9 9 9 9 10 10 10 9 9 9 9 9 10 10 10 11 11 11 12 13 13 13
26 26 25 26 25 24 25 24 22 19 18 15 14 14 13 13 12 11 11 10 9 10 10 10 10 10 11 11 10 10 9 9 9 10 11 11 11 12 12 13 14 14 14 14
26 25 25 26 26 25 25 24 23 21 20 19 17 16 16 15 14 13 12 11 11 11 12 12 12 12 12 11 11 11 11 11 11 12 12 12 13 13 14 14 15 15 15 15
27 26 25 24 26 27 27 26 25 23 21 20 18 18 18 16 15 14 13 12 12 13 13 13 13 13 12 12 12 12 12 12 13 14 14 14 14 15 15 16 16 16 16 15
29 28 26 24 23 25 27 27 26 25 22 22 22 21 20 18 17 15 15 13 13 13 14 14 13 13 13 13 13 13 13 14 15 15 16 16 16 16 17 17 17 17 17 17
30 30 29 28 27 26 26 27 27 26 25 23 23 22 22 20 18 17 16 15 14 14 14 15 15 15 16 16 15 15 15 15 16 17 17 17 17 17 18 18 18 17 18 18
32 31 30 30 29 28 28 28 27 27 26 26 25 25 23 21 19 18 17 16 16 16 16 16 16 17 18 18 18 17 17 17 17 17 17 18 18 18 18 19 20 19 19 20
32 31 30 30 30 29 30 29 29 28 27 26 26 25 24 23 22 21 20 19 18 18 18 18 18 18 18 19 19 20 19 19 19 19 19 19 20 20 20 20 20 20 20 20
32 31 31 29 31 31 30 29 29 28 28 28 27 25 25 24 23 23 22 22 21 20 20 20 20 20 20 21 22 21 22 21 21 21 21 21 22 22 22 22 21 22 22 21
31 31 31 30 30 30 30 29 28 28 29 28 27 26 25 25 24 24 24 23 23 22 22 22 22 22 22 22 23 24 23 23 23 23 23 23 24 24 24 23 23 23 23 23
31 31 31 31 29 29 30 29 28 29 30 29 28 27 27 26 26 26 25 25 25 24 23 24 24 25 25 25 25 25 25 25 24 24 24 25 25 25 25 25 25 25 24 24
31 31 31 31 30 30 31 30 29 30 30 29 29 29 29 29 29 28 27 27 26 26 26 26 26 27 27 26 26 26 26 26 25 25 26 25 25 26 26 27 26 26 26 25
30 31 31 30 30 30 32 31 31 31 30 30 30 30 30 31 30 30 29 28 28 27 27 27 27 27 27 27 27 27 27 26 26 27 28 27 27 28 28 29 28 27 26 26
32 31 30 30 31 31 31 31 31 30 30 31 31 31 32 32 31 30 30 29 29 29 29 29 29 28 28 28 28 28 27 26 27 28 28 28 29 30 30 30 29 28 27 26
32 31 31 31 31 31 30 30 30 30 31 32 32 32 32 31 31 31 31 31 31 31 31 30 30 30 30 30 30 28 28 29 29 29 29 30 30 30 31 31 31 30 29 27
31 31 31 32 31 31 31 31 31 31 32 32 32 31 31 31 32 32 32 32 32 32 32 32 32 31 31 31 31 30 30 30 30 29 29 30 30 31 31 32 31 31 31 30
30 30 31 31 31 31 31 30 31 31 32 32 32 31 31 32 32 32 33 33 32 32 32 32 32 32 32 32 32 32 32 31 31 31 31 30 31 32 32 32 32 32 31 30
Wind_Direction
216 215 215 217 213 207 217 233 278 318 346 5 16 26 29 33 34 32 32 35 36 39 42 43 44 45 50 53 53 53 56 61 61 59 57 53 47 41 29 22 11 360 339 327
219 219 218 218 220 221 228 238 260 287 315 336 356 6 18 26 23 23 24 26 28 31 33 36 38 40 42 43 46 48 49 48 44 44 44 43 39 32 20 5 355 349 344 337
220 222 222 223 225 227 233 240 255 273 293 314 336 1 4 6 7 8 9 12 17 20 22 26 29 30 33 34 37 39 39 37 33 32 30 27 23 18 16 7 353 343 333 330
220 222 224 226 229 229 236 243 252 265 285 305 321 337 337 349 349 351 359 0 359 5 11 14 15 14 16 19 21 25 28 28 25 21 18 14 10 7 5 358 350 342 336 328
223 224 225 227 229 230 233 242 251 259 266 277 289 282 309 322 329 335 341 348 348 351 356 359 0 2 1 3 6 10 11 13 12 7 3 3 4 3 358 353 348 342 336 330
224 223 224 226 227 231 235 243 250 254 259 266 273 278 293 307 304 312 318 326 332 336 342 347 346 344 346 347 353 357 358 359 359 358 355 352 353 353 350 345 341 337 334 329
224 225 226 226 227 232 235 239 246 250 255 259 268 277 281 290 289 290 293 303 309 319 329 336 337 335 332 332 339 343 345 346 347 348 346 342 339 336 336 336 335 331 329 325
225 226 227 226 227 233 236 235 233 236 248 260 269 274 280 290 286 283 287 291 291 301 312 322 323 321 321 318 321 331 331 335 338 339 338 335 333 330 328 329 329 327 325 323
223 226 229 228 228 230 234 233 233 240 244 249 263 274 276 285 286 284 287 288 285 289 300 305 309 310 307 307 309 316 315 321 326 328 328 327 327 326 326 323 321 321 320 319
222 224 229 229 229 230 232 234 236 234 242 248 262 269 271 275 279 284 284 282 281 282 285 292 301 301 301 300 300 304 304 308 314 319 323 323 320 321 320 319 317 318 317 316
219 223 228 229 229 232 232 234 237 238 239 246 258 266 270 272 277 280 281 276 277 277 281 287 294 294 298 299 298 299 302 305 308 313 317 318 318 316 318 315 314 315 315 313
220 223 227 231 233 234 235 236 238 238 244 246 250 260 268 272 274 274 273 268 271 276 280 284 287 290 293 295 295 294 295 297 300 305 310 313 314 316 315 312 310 311 311 310
222 224 227 232 235 235 235 237 239 241 244 248 251 260 264 268 271 271 271 266 267 274 280 285 281 283 286 289 290 289 291 294 297 301 305 309 311 312 313 309 306 306 306 307
224 226 226 228 233 239 238 239 241 242 242 248 251 255 262 265 268 267 269 268 268 272 277 282 280 278 281 284 286 287 289 293 293 295 299 303 306 308 311 310 305 304 305 302
226 230 230 230 234 239 240 240 242 243 243 245 252 258 261 263 264 265 268 270 270 272 276 276 275 277 280 281 285 288 293 295 291 291 294 299 304 306 308 310 307 305 303 301
228 231 233 235 236 239 240 241 243 244 245 248 252 256 260 260 262 263 264 267 270 274 276 274 275 275 278 281 283 286 290 292 293 292 291 295 299 301 304 305 306 302 298 301
230 233 234 236 238 240 241 242 244 245 246 248 251 255 257 258 261 263 264 264 269 275 276 275 274 275 275 277 281 283 289 293 293 291 290 291 293 296 299 301 303 302 302 302
230 232 235 237 240 240 243 245 245 246 246 247 249 253 254 256 258 260 262 263 266 271 275 278 275 274 276 278 280 283 288 289 290 288 286 286 289 292 294 296 298 298 298 298
231 232 235 237 241 244 245 245 246 246 246 247 248 249 251 254 257 259 260 261 264 269 271 272 272 272 275 278 280 282 285 286 287 287 286 286 287 289 290 291 293 295 295 295
232 233 235 238 240 244 247 246 246 246 247 246 247 247 249 252 255 258 260 261 264 267 269 270 270 270 272 275 279 281 283 284 285 285 285 285 287 288 288 289 289 292 292 291
231 232 235 239 241 244 247 247 247 245 246 246 246 248 249 251 253 256 258 260 263 265 267 269 269 269 270 273 277 281 281 281 281 283 283 283 284 285 287 288 289 290 290 289
231 234 236 239 241 244 247 248 248 248 247 246 248 249 250 251 252 255 258 261 263 265 267 268 269 270 270 273 275 279 280 279 280 283 282 283 283 283 285 288 289 290 289 287
233 235 238 240 242 245 248 249 249 249 248 248 248 249 249 250 252 254 257 260 263 265 267 268 268 269 270 273 275 278 279 279 279 281 282 284 283 281 284 287 289 290 288 286
235 238 240 242 243 247 248 248 249 249 249 249 249 250 251 252 253 255 257 259 262 263 264 266 267 267 268 272 275 276 277 280 282 283 282 282 283 285 285 286 287 287 287 285
238 240 242 243 246 248 248 249 249 249 249 250 250 251 252 252 252 255 257 259 261 262 264 265 266 268 270 270 270 273 276 277 280 281 282 283 285 286 287 285 285 287 287 287
239 241 242 244 247 249 250 251 250 249 249 249 249 250 250 252 254 256 257 259 260 262 263 265 266 268 269 269 269 272 275 278 280 281 283 282 283 285 286 287 286 287 287 285
Height
5914 5917 5919 5921 5922 5924 5925 5925 5925 5925 5924 5923 5922 5921 5919 5918 5916 5914 5912 5911 5910 5908 5906 5905 5903 5901 5900 5899 5897 5896 5895 5894 5893 5892 5891 5891 5890 5889 5889 5888 5887 5886 5886 5885
5912 5915 5917 5918 5919 5921 5923 5924 5925 5924 5923 5923 5922 5921 5920 5919 5917 5916 5914 5913 5911 5910 5908 5906 5905 5903 5902 5901 5899 5898 5897 5896 5895 5893 5892 5891 5891 5890 5889 5888 5887 5886 5885 5885
5909 5913 5914 5915 5917 5919 5921 5923 5924 5924 5923 5922 5922 5922 5921 5919 5918 5916 5915 5914 5912 5911 5910 5908 5907 5905 5904 5902 5901 5899 5898 5897 5896 5895 5893 5892 5891 5890 5889 5888 5887 5886 5885 5884
5905 5908 5910 5913 5915 5917 5919 5920 5921 5922 5922 5922 5922 5923 5921 5920 5918 5917 5916 5914 5913 5912 5911 5909 5908 5906 5905 5903 5902 5900 5899 5897 5896 5895 5894 5893 5892 5890 5889 5888 5887 5886 5884 5883
5902 5904 5907 5910 5912 5914 5917 5918 5919 5919 5920 5922 5921 5922 5923 5919 5918 5917 5916 5915 5914 5912 5911 5910 5908 5907 5905 5904 5903 5901 5900 5898 5897 5895 5894 5893 5892 5890 5889 5888 5887 5885 5884 5882
5898 5900 5903 5906 5909 5911 5913 5915 5916 5917 5919 5920 5920 5921 5921 5919 5918 5917 5915 5914 5913 5912 5911 5910 5908 5907 5906 5904 5903 5901 5900 5898 5897 5895 5894 5893 5892 5890 5889 5887 5886 5885 5883 5882
5893 5896 5899 5902 5905 5907 5910 5913 5915 5917 5918 5919 5918 5918 5919 5917 5916 5915 5914 5913 5913 5912 5910 5909 5908 5907 5905 5904 5902 5901 5900 5898 5897 5895 5894 5892 5891 5889 5888 5886 5885 5884 5882 5880
5890 5893 5894 5898 5901 5904 5906 5910 5914 5916 5917 5917 5915 5915 5916 5915 5914 5913 5912 5912 5911 5910 5909 5908 5907 5906 5904 5903 5902 5900 5899 5898 5896 5895 5893 5891 5890 5888 5886 5885 5883 5882 5880 5879
5886 5889 5891 5893 5897 5900 5902 5905 5909 5912 5912 5914 5913 5912 5913 5912 5911 5911 5910 5910 5909 5909 5908 5907 5906 5904 5903 5902 5900 5899 5898 5897 5895 5894 5892 5890 5888 5887 5885 5883 5882 5880 5878 5877
5881 5885 5886 5889 5892 5895 5899 5902 5904 5907 5909 5911 5911 5910 5910 5909 5909 5909 5908 5907 5907 5906 5906 5905 5904 5903 5901 5900 5898 5897 5896 5895 5894 5892 5891 5889 5887 5885 5883 5881 5880 5877 5876 5874
5875 5880 5883 5885 5887 5890 5894 5897 5899 5902 5904 5907 5909 5910 5906 5906 5906 5905 5905 5904 5904 5904 5903 5903 5902 5901 5899 5898 5896 5895 5894 5893 5892 5891 5889 5887 5885 5883 5880 5879 5876 5875 5873 5871
5870 5875 5878 5880 5882 5885 5888 5891 5894 5898 5899 5900 5904 5907 5902 5902 5902 5902 5901 5901 5901 5901 5900 5900 5899 5898 5897 5895 5894 5893 5892 5891 5890 5888 5887 5885 5883 5880 5878 5875 5873 5871 5870 5868
5864 5869 5872 5876 5879 5880 5882 5885 5888 5891 5894 5896 5899 5902 5898 5898 5898 5898 5898 5897 5897 5897 5897 5896 5895 5895 5894 5892 5891 5890 5889 5888 5887 5885 5884 5882 5880 5878 5875 5872 5870 5868 5866 5864
5859 5862 5868 5872 5874 5875 5877 5880 5882 5886 5889 5891 5892 5894 5893 5893 5893 5893 5894 5893 5893 5893 5893 5892 5891 5891 5890 5889 5888 5887 5886 5885 5883 5882 5880 5879 5877 5874 5872 5869 5866 5864 5863 5861
5852 5856 5860 5864 5867 5869 5871 5873 5876 5879 5882 5885 5887 5887 5887 5888 5889 5889 5889 5889 5889 5889 5888 5888 5887 5886 5886 5885 5884 5883 5882 5880 5879 5878 5876 5875 5873 5871 5868 5865 5863 5860 5859 5857
5845 5849 5853 5856 5859 5862 5864 5867 5869 5872 5875 5877 5879 5881 5881 5882 5883 5884 5884 5884 5884 5884 5883 5883 5882 5882 5881 5880 5880 5879 5877 5876 5874 5873 5872 5870 5869 5867 5864 5862 5859 5856 5855 5852
5838 5843 5846 5850 5852 5854 5857 5860 5863 5865 5867 5870 5872 5874 5875 5876 5877 5878 5879 5879 5879 5879 5878 5878 5877 5877 5876 5875 5874 5873 5872 5871 5870 5868 5867 5866 5864 5862 5860 5858 5855 5853 5851 5849
5832 5835 5839 5843 5845 5847 5852 5853 5855 5857 5860 5862 5864 5867 5868 5869 5871 5872 5872 5873 5873 5873 5873 5872 5871 5871 5870 5869 5868 5867 5867 5866 5864 5863 5861 5860 5859 5857 5855 5852 5850 5848 5846 5844
5824 5828 5831 5835 5837 5839 5843 5845 5847 5850 5852 5854 5857 5859 5861 5862 5864 5864 5865 5866 5867 5867 5867 5866 5866 5865 5864 5863 5862 5862 5861 5860 5858 5857 5855 5854 5853 5851 5849 5847 5845 5842 5840 5838
5816 5820 5824 5827 5830 5833 5835 5837 5839 5842 5843 5847 5849 5851 5853 5855 5857 5857 5858 5859 5859 5860 5860 5859 5859 5858 5858 5857 5856 5855 5854 5853 5852 5850 5849 5847 5846 5844 5842 5840 5838 5836 5834 5832
5808 5812 5815 5818 5821 5824 5825 5828 5831 5835 5836 5838 5841 5843 5845 5847 5849 5850 5851 5851 5852 5852 5852 5852 5852 5851 5850 5850 5849 5848 5847 5845 5844 5843 5841 5840 5838 5837 5836 5834 5832 5830 5828 5825
5801 5804 5807 5811 5814 5817 5817 5820 5823 5825 5827 5829 5832 5834 5836 5838 5840 5841 5842 5843 5844 5844 5844 5844 5844 5843 5843 5842 5841 5840 5839 5838 5836 5835 5834 5832 5831 5830 5829 5827 5825 5822 5820 5818
5793 5797 5799 5803 5806 5807 5809 5811 5813 5816 5818 5820 5823 5825 5827 5828 5830 5832 5833 5834 5835 5836 5836 5836 5836 5835 5835 5834 5834 5833 5831 5830 5828 5827 5826 5824 5823 5822 5820 5819 5817 5815 5812 5810
5785 5788 5790 5793 5796 5798 5801 5802 5805 5807 5809 5811 5813 5815 5817 5819 5821 5823 5824 5825 5826 5826 5827 5827 5827 5827 5827 5826 5825 5824 5823 5822 5820 5819 5818 5816 5815 5813 5812 5810 5808 5807 5805 5803
5776 5779 5782 5784 5787 5790 5791 5794 5796 5798 5800 5802 5804 5806 5808 5810 5812 5813 5814 5816 5816 5817 5818 5818 5818 5818 5817 5817 5817 5816 5815 5813 5812 5810 5809 5807 5806 5805 5803 5801 5799 5798 5797 5794
5768 5771 5774 5776 5779 5781 5783 5785 5786 5788 5791 5793 5795 5796 5798 5800 5802 5803 5805 5806 5807 5808 5808 5808 5808 5808 5808 5808 5808 5807 5806 5804 5803 5801 5800 5799 5797 5796 5794 5792 5791 5789 5788 5786